Wetbulb
70.00 69.67 69.65 70.12 70.46 70.28 69.19 68.52 66.35 62.28 63.48 68.53 70.09 71.47 71.81 73.17 72.43 73.30 74.91 71.88 71.73 71.34 70.34 69.69 70.47 71.42 72.15 72.31 72.50 72.75 73.21 73.16 73.39 72.68 72.51 72.43 73.24 74.00
69.36 69.97 70.47 70.42 70.01 70.52 70.49 70.28 68.63 66.27 63.39 68.50 69.41 70.20 71.65 71.94 72.45 73.24 73.29 70.10 70.31 69.01 69.04 68.89 69.39 70.11 70.71 71.19 71.51 71.76 71.85 71.85 71.76 71.71 71.66 72.00 72.43 72.72
69.82 69.77 69.14 69.92 69.13 69.15 69.47 69.55 69.09 68.73 65.25 66.86 69.34 70.27 70.77 71.34 72.25 73.24 73.14 72.94 72.95 68.97 68.88 68.42 68.04 68.79 69.55 70.04 70.31 70.45 70.81 70.74 70.93 71.13 71.45 71.67 71.67 71.79
68.37 68.46 67.89 67.90 67.99 67.82 66.24 66.80 66.92 67.68 66.34 65.99 68.00 68.24 69.69 71.62 71.96 71.74 71.47 72.27 73.40 68.70 68.35 67.80 67.53 67.01 66.97 67.75 67.98 67.98 67.50 68.16 68.92 69.31 70.32 71.30 71.32 71.23
68.21 68.02 68.23 67.90 67.37 66.25 65.62 64.62 64.83 65.05 65.29 64.30 64.77 67.55 68.55 70.60 70.06 70.85 70.47 71.43 72.40 69.87 68.22 67.73 67.30 67.77 66.98 66.19 65.97 64.97 63.69 63.12 64.28 65.19 66.28 67.46 68.94 69.71
67.67 67.24 67.77 67.14 66.11 65.83 65.17 66.62 65.65 63.96 63.70 62.44 62.71 63.65 66.01 68.93 68.68 67.21 67.27 68.88 68.48 71.60 70.11 68.54 68.39 67.66 66.60 65.39 64.94 63.82 61.41 60.55 60.57 61.05 61.75 62.82 64.54 65.92
65.91 66.21 65.86 64.71 65.12 64.62 64.84 66.60 65.00 62.49 61.00 60.59 60.84 62.68 63.56 64.44 65.18 66.46 65.34 66.08 68.47 69.84 69.18 70.82 72.00 74.31 73.04 67.63 67.48 65.47 63.05 61.64 60.55 60.38 60.18 60.52 61.07 62.15
65.97 66.27 65.44 62.59 65.30 64.41 63.22 62.25 62.62 62.07 60.50 59.36 60.78 61.45 63.37 64.70 66.58 64.95 64.25 63.73 63.49 68.55 66.51 66.71 70.57 71.19 73.24 73.59 63.88 64.21 63.49 62.76 62.17 61.65 60.36 60.18 60.91 62.70
65.21 65.46 65.35 64.56 63.91 66.06 62.81 59.06 58.53 60.20 61.83 63.79 62.60 62.80 63.40 65.78 66.76 65.77 64.94 63.98 63.37 65.62 66.04 64.68 70.64 69.06 72.76 68.83 62.40 62.33 62.40 62.03 61.37 60.52 59.50 59.26 59.28 57.96
64.70 64.55 64.66 65.11 65.54 65.19 64.98 63.35 62.02 62.12 60.80 61.37 63.45 64.34 64.79 65.83 66.32 65.81 65.62 65.20 65.60 65.82 67.92 63.26 68.98 68.11 71.19 70.97 62.17 62.00 60.77 59.64 58.37 57.88 55.51 55.03 53.70 53.85
65.51 64.64 63.00 62.51 61.66 59.93 63.68 62.81 62.09 62.09 58.65 56.29 58.19 58.45 58.22 58.37 59.07 63.03 63.17 62.40 60.98 62.77 66.89 64.34 66.54 65.65 66.89 69.05 68.52 61.81 60.24 58.36 56.83 56.12 55.43 54.41 52.37 53.89
64.52 63.53 58.01 59.10 57.44 57.83 63.16 62.47 60.52 60.27 59.38 60.06 60.60 60.27 59.49 60.86 58.82 61.86 63.10 61.30 61.48 60.72 65.24 61.63 62.26 62.50 61.73 69.20 69.05 68.07 65.52 56.85 54.81 54.73 55.54 53.46 52.05 62.58
60.66 58.49 59.31 54.04 55.88 55.25 57.15 62.59 60.43 58.85 59.11 59.66 59.98 60.21 60.96 61.52 62.07 63.50 63.79 63.12 61.77 61.82 64.28 62.16 61.55 60.15 59.87 60.32 63.20 67.07 67.48 65.44 64.88 61.64 53.15 52.89 51.32 55.12
61.25 59.37 58.11 52.90 54.71 54.83 56.30 56.95 54.99 55.19 58.61 58.64 58.95 59.36 59.88 60.60 61.48 63.15 66.74 65.46 64.65 64.90 64.65 64.08 59.66 58.46 56.92 55.20 55.78 62.40 62.08 63.89 66.97 66.70 66.45 58.88 53.50 52.74
64.35 59.81 53.87 51.11 52.75 54.06 54.42 54.84 53.75 58.66 58.21 57.45 58.29 59.33 60.58 60.93 61.89 61.83 65.77 66.71 66.18 66.36 65.66 65.56 61.89 60.90 58.69 56.38 55.90 56.62 56.88 59.48 61.33 62.94 66.35 65.48 65.77 65.58
60.98 60.77 56.72 55.25 53.35 55.83 56.12 57.44 58.89 58.41 58.32 58.08 58.44 59.55 60.62 60.54 60.23 61.23 60.07 61.17 60.51 60.69 64.97 65.31 64.25 62.61 58.74 58.82 58.38 57.17 58.67 56.42 59.93 60.12 60.84 62.32 62.94 63.24
61.07 62.12 59.66 58.78 58.19 58.42 58.74 58.65 58.96 58.88 58.02 58.55 58.51 58.46 58.82 60.26 60.49 61.21 60.62 60.04 58.62 58.28 59.13 60.94 62.32 63.35 61.61 61.19 57.85 58.41 58.35 58.85 59.10 58.25 60.81 58.76 60.75 61.49
59.00 60.77 60.02 59.12 58.17 58.25 57.27 57.36 58.34 58.45 59.45 59.62 59.43 59.34 58.58 58.90 59.52 60.83 60.68 59.90 58.89 59.22 59.30 59.93 59.91 59.07 59.23 60.74 60.26 58.22 58.54 59.08 59.97 61.11 60.62 58.14 57.48 59.85
58.33 56.93 54.91 53.96 54.19 54.03 55.46 56.87 57.45 57.97 58.04 59.58 59.93 59.96 59.73 59.50 58.00 58.81 60.08 60.13 59.64 59.78 60.10 60.62 59.61 57.88 55.53 54.18 58.93 56.85 58.61 59.33 59.77 59.35 60.02 59.38 58.69 59.92
56.48 55.08 55.62 56.45 57.58 56.63 56.79 55.94 55.74 54.48 54.93 54.32 54.13 54.54 53.45 53.76 56.16 57.30 58.03 59.56 59.79 59.96 59.68 60.36 59.64 58.59 56.81 56.20 56.71 59.30 52.06 60.08 59.26 59.14 59.25 60.63 60.95 56.42
56.90 56.90 56.03 55.13 54.83 54.64 53.43 53.50 53.50 52.94 53.44 52.16 52.55 52.32 51.45 52.34 52.67 49.87 50.42 49.19 52.38 55.44 56.03 58.71 59.95 55.23 58.56 60.16 56.97 57.62 59.72 52.04 56.95 60.70 61.09 58.64 58.14 58.59
53.00 53.62 53.85 54.14 54.20 53.82 53.45 53.16 53.79 52.51 52.05 51.97 51.42 49.67 50.62 50.11 47.95 46.85 47.82 47.10 48.01 48.42 49.37 52.82 56.64 56.46 55.15 53.59 53.62 57.48 59.26 60.75 54.94 53.50 54.14 55.81 59.02 56.32
53.30 53.88 54.41 54.54 54.97 54.81 54.22 53.65 52.35 51.92 51.71 51.27 50.84 50.62 50.35 49.42 49.45 48.43 48.14 48.88 46.57 46.60 45.57 46.28 48.78 53.23 53.09 53.01 53.14 52.94 53.54 55.83 58.81 59.55 59.48 54.39 54.37 54.51
MSLP
1016.93 1016.87 1016.75 1016.76 1016.73 1016.63 1016.55 1016.33 1016.01 1015.22 1014.70 1014.68 1014.67 1014.96 1015.01 1014.97 1015.24 1015.03 1014.77 1015.39 1015.39 1015.39 1015.53 1015.66 1015.77 1015.84 1015.94 1016.12 1016.22 1016.36 1016.55 1016.71 1017.02 1017.27 1017.60 1017.98 1018.10 1018.34
1016.76 1016.92 1016.91 1016.78 1016.68 1016.57 1016.46 1016.36 1016.20 1015.76 1015.09 1015.06 1014.88 1015.15 1015.09 1014.68 1014.57 1014.57 1014.36 1014.67 1014.73 1014.97 1015.10 1015.15 1015.18 1015.27 1015.37 1015.44 1015.60 1015.79 1015.97 1016.11 1016.23 1016.46 1016.76 1017.08 1017.26 1017.39
1017.08 1017.11 1017.15 1017.18 1016.92 1016.95 1016.83 1016.59 1016.23 1016.19 1015.62 1014.97 1015.47 1015.36 1015.40 1015.19 1014.80 1014.62 1014.24 1014.19 1013.99 1014.61 1014.71 1014.69 1014.63 1014.81 1014.91 1014.97 1015.07 1015.20 1015.29 1015.56 1015.75 1015.82 1016.06 1016.25 1016.50 1016.76
1016.87 1017.05 1017.00 1017.00 1017.13 1017.15 1016.85 1016.94 1016.80 1016.87 1016.57 1015.95 1015.80 1015.46 1015.38 1015.33 1015.13 1014.82 1014.33 1013.81 1013.82 1014.34 1014.56 1014.62 1014.40 1014.27 1014.41 1014.57 1014.69 1014.85 1015.10 1015.24 1015.35 1015.59 1015.69 1015.91 1015.95 1016.11
1016.93 1017.03 1017.09 1017.20 1017.14 1017.10 1017.17 1016.96 1016.91 1016.93 1016.82 1016.56 1016.02 1015.78 1015.68 1015.57 1015.36 1014.98 1014.72 1014.43 1014.02 1014.26 1014.25 1014.36 1014.28 1014.15 1014.26 1014.34 1014.52 1014.84 1014.98 1015.28 1015.52 1015.43 1015.56 1015.62 1015.72 1015.70
1016.86 1016.95 1017.06 1017.23 1017.27 1017.43 1017.39 1017.35 1017.15 1016.85 1016.70 1016.51 1016.18 1015.85 1015.65 1015.41 1015.45 1015.13 1014.65 1014.45 1014.10 1013.86 1014.08 1014.36 1014.30 1014.28 1014.25 1014.49 1014.72 1014.76 1014.83 1014.97 1015.14 1015.24 1015.25 1015.39 1015.44 1015.59
1016.90 1016.97 1017.04 1017.28 1017.40 1017.43 1017.44 1017.53 1017.36 1016.86 1016.44 1016.25 1015.98 1015.84 1015.45 1015.33 1015.38 1015.52 1015.21 1014.70 1014.21 1014.41 1014.09 1013.69 1013.52 1013.55 1013.76 1014.45 1014.61 1014.78 1014.74 1015.02 1015.06 1015.16 1015.13 1015.23 1015.40 1015.43
1016.60 1016.91 1017.10 1017.12 1017.25 1017.35 1017.50 1017.60 1017.82 1017.46 1016.95 1016.18 1015.81 1015.62 1015.74 1015.65 1015.66 1015.83 1015.63 1015.15 1014.36 1014.84 1014.31 1013.71 1013.72 1013.17 1013.26 1013.46 1014.73 1014.73 1014.77 1014.78 1015.21 1015.05 1015.25 1015.33 1015.42 1015.43
1016.52 1016.62 1016.72 1016.59 1016.92 1016.82 1017.15 1017.22 1017.42 1017.52 1017.56 1016.94 1016.47 1016.21 1016.10 1015.99 1016.11 1015.78 1015.73 1015.63 1014.91 1014.71 1014.83 1013.51 1013.73 1013.25 1013.35 1013.74 1014.48 1014.71 1014.72 1014.78 1015.12 1015.25 1015.38 1015.53 1015.52 1015.58
1016.51 1016.41 1016.49 1016.71 1016.89 1016.89 1016.82 1016.89 1016.91 1017.15 1017.23 1016.96 1016.66 1016.53 1016.57 1016.37 1016.32 1016.11 1016.02 1015.86 1014.76 1014.26 1014.90 1013.80 1013.47 1013.22 1013.29 1013.24 1014.25 1014.60 1014.94 1014.97 1015.18 1015.65 1015.40 1015.39 1015.39 1015.60
1016.35 1016.43 1016.52 1016.71 1016.97 1017.08 1016.86 1016.62 1016.69 1016.67 1016.77 1017.30 1017.28 1016.94 1016.87 1016.83 1016.76 1016.35 1015.63 1015.15 1014.13 1013.43 1014.22 1013.98 1013.29 1013.21 1013.27 1013.12 1013.45 1014.37 1014.67 1014.79 1014.93 1015.57 1015.64 1015.53 1015.56 1015.70
1015.85 1016.33 1016.46 1016.79 1017.02 1017.17 1016.86 1016.60 1016.54 1016.34 1016.66 1016.50 1016.35 1016.14 1016.24 1016.00 1016.44 1016.04 1015.55 1015.04 1014.29 1013.66 1014.06 1014.13 1013.66 1013.75 1012.91 1013.16 1013.46 1013.61 1014.02 1014.64 1014.87 1015.26 1015.56 1015.58 1015.49 1014.70
1015.19 1015.78 1015.77 1016.38 1016.71 1016.85 1017.00 1016.63 1016.55 1016.60 1016.28 1016.22 1015.86 1015.37 1015.05 1014.71 1014.75 1014.76 1015.03 1014.93 1014.29 1013.86 1014.25 1014.13 1013.69 1013.68 1013.62 1013.35 1013.18 1013.19 1013.26 1013.70 1014.01 1014.46 1015.12 1015.30 1015.45 1015.11
1014.93 1015.46 1015.69 1015.88 1016.37 1016.39 1016.61 1016.50 1016.68 1016.69 1016.15 1015.90 1015.67 1015.15 1014.54 1014.28 1014.31 1014.59 1014.49 1014.61 1014.41 1014.37 1014.65 1014.67 1013.96 1013.66 1013.46 1013.25 1012.81 1012.71 1012.96 1013.37 1013.36 1013.36 1013.67 1014.52 1015.08 1015.17
1014.88 1015.21 1015.51 1015.86 1016.27 1016.36 1016.17 1016.10 1016.53 1016.14 1015.49 1015.21 1014.76 1014.63 1014.64 1014.45 1014.46 1014.27 1014.01 1014.04 1014.22 1014.28 1013.99 1014.15 1014.23 1013.87 1013.62 1013.15 1012.83 1012.79 1012.84 1012.36 1012.88 1012.90 1012.88 1013.35 1013.53 1013.65
1015.16 1015.19 1015.50 1015.84 1016.17 1016.06 1016.09 1015.95 1015.89 1015.60 1015.04 1014.77 1014.53 1014.13 1014.09 1014.03 1013.69 1013.64 1013.46 1013.26 1013.11 1012.93 1013.20 1013.57 1013.63 1013.82 1013.31 1013.09 1012.91 1012.54 1012.39 1012.27 1012.37 1012.55 1012.61 1012.65 1012.81 1013.01
1014.38 1014.73 1015.09 1015.35 1015.44 1015.27 1015.31 1015.48 1015.61 1015.37 1015.02 1014.49 1014.09 1013.95 1013.43 1013.22 1013.00 1013.05 1013.03 1012.91 1012.88 1012.35 1012.18 1012.26 1013.07 1013.24 1013.22 1013.18 1012.58 1012.26 1011.95 1011.94 1012.02 1012.12 1012.57 1012.09 1012.24 1012.44
1014.49 1014.43 1014.63 1015.04 1015.29 1015.24 1015.29 1015.30 1015.12 1015.10 1014.91 1014.56 1014.06 1013.75 1013.26 1012.98 1012.76 1012.55 1012.48 1012.26 1012.01 1011.70 1011.60 1011.64 1011.91 1012.39 1012.45 1012.35 1012.59 1011.70 1011.35 1011.41 1011.40 1011.79 1012.01 1011.68 1011.50 1011.72
1014.70 1015.00 1015.19 1015.35 1015.51 1015.61 1015.72 1015.74 1015.46 1015.67 1015.49 1014.70 1014.15 1013.84 1013.52 1013.20 1012.98 1012.60 1012.11 1011.76 1011.41 1011.25 1011.08 1011.08 1011.25 1011.42 1011.21 1010.73 1010.76 1011.48 1010.90 1010.61 1010.86 1010.99 1011.08 1010.98 1010.98 1010.90
1015.14 1015.34 1015.43 1015.58 1015.60 1015.89 1015.99 1015.95 1015.79 1015.78 1015.54 1015.32 1015.13 1014.86 1014.95 1014.31 1013.66 1012.86 1012.52 1011.61 1011.08 1010.62 1010.45 1010.58 1010.72 1010.68 1010.65 1010.30 1010.23 1010.25 1011.09 1010.70 1010.16 1010.13 1010.11 1010.25 1010.27 1010.82
1015.51 1015.59 1015.78 1015.99 1016.11 1016.27 1016.24 1016.12 1016.06 1015.96 1015.66 1015.64 1015.27 1015.26 1014.91 1014.67 1014.18 1014.22 1013.78 1013.48 1012.96 1012.16 1011.28 1010.33 1010.30 1011.06 1010.95 1010.74 1010.70 1010.20 1010.15 1010.29 1009.95 1009.74 1009.59 1009.54 1009.51 1009.88
1015.74 1015.74 1015.87 1015.91 1015.81 1015.89 1015.82 1015.76 1015.62 1015.40 1015.35 1015.19 1015.04 1015.05 1014.82 1014.82 1014.70 1014.53 1014.26 1013.88 1013.50 1013.19 1012.78 1012.46 1011.72 1011.65 1011.65 1011.50 1010.95 1010.18 1009.24 1008.88 1009.44 1009.57 1009.74 1009.60 1009.12 1008.81
1016.20 1016.15 1016.18 1016.06 1015.96 1015.82 1015.82 1015.58 1015.35 1015.13 1015.13 1015.08 1014.87 1014.73 1014.66 1014.27 1014.42 1014.30 1014.28 1013.83 1013.84 1013.52 1013.29 1012.75 1012.75 1011.80 1011.66 1011.53 1011.53 1010.87 1010.47 1010.00 1009.26 1008.75 1008.21 1008.45 1008.71 1008.73
Wind_Speed
2 3 1 2 0 1 3 3 4 5 4 3 1 4 4 4 6 7 4 8 6 6 8 9 11 13 12 13 13 13 12 16 23 24 26 26 25 25
2 3 2 2 2 1 1 1 3 4 5 1 2 4 5 5 3 5 5 6 4 4 3 6 8 11 12 13 12 12 12 13 14 16 19 22 21 21
3 1 1 1 2 2 3 2 2 3 6 4 3 4 5 5 6 7 6 5 3 6 7 5 6 7 10 11 11 11 11 12 13 14 14 14 16 15
4 3 3 2 1 1 3 4 5 4 6 6 5 4 4 5 6 6 5 4 4 9 6 6 4 4 8 9 9 9 9 8 9 9 9 10 11 12
3 3 2 2 2 3 3 4 3 4 4 5 6 4 4 4 5 3 4 3 4 1 2 5 5 6 1 5 7 6 7 5 6 6 7 7 7 9
3 3 3 3 4 3 3 2 2 4 3 5 5 5 4 3 4 4 3 3 4 3 1 1 4 7 8 4 0 4 4 6 7 6 6 6 6 6
4 4 3 1 4 4 4 2 4 4 4 4 4 4 4 4 4 4 5 5 3 3 5 3 4 1 3 4 2 1 5 5 6 7 6 5 5 5
5 5 5 4 3 6 6 3 5 5 5 5 4 4 5 5 2 5 5 6 4 3 6 6 4 3 1 1 4 1 4 5 6 6 6 6 6 5
5 5 6 5 5 5 7 4 4 3 5 5 6 5 6 5 5 6 4 5 6 6 6 6 1 4 1 5 3 2 4 6 5 6 6 6 6 5
6 6 6 6 6 6 6 5 4 4 4 5 6 6 6 6 7 6 7 7 8 5 2 6 2 4 3 3 7 6 5 7 7 4 4 4 4 6
6 6 6 5 4 7 7 6 5 6 4 6 8 9 10 9 9 7 7 6 6 3 3 5 2 4 4 4 5 7 7 6 7 6 4 6 9 10
5 6 7 6 5 6 7 5 5 5 6 7 6 7 9 9 10 10 8 8 6 5 4 4 3 3 4 2 0 3 6 5 4 5 5 6 8 4
3 4 3 4 4 6 7 4 4 6 6 7 7 6 6 6 6 7 9 9 9 6 3 4 2 3 4 4 2 3 5 6 6 7 9 8 8 8
4 3 3 6 6 8 7 4 5 6 6 6 7 7 5 4 3 5 6 8 9 10 1 4 4 4 4 6 6 2 4 4 6 7 7 7 9 8
5 3 4 4 4 6 8 6 7 6 5 6 6 6 6 5 6 6 5 5 8 9 7 7 7 4 5 6 6 5 3 4 5 5 6 8 8 8
6 4 2 2 4 5 3 5 5 6 6 7 7 6 5 6 6 5 6 5 5 6 8 9 9 7 7 7 7 7 5 5 3 6 5 6 6 7
3 4 4 5 5 5 4 4 5 5 6 7 7 8 7 6 7 7 7 6 7 8 8 6 7 8 8 9 8 8 8 7 6 6 5 7 6 7
2 3 3 3 4 4 4 4 5 5 6 6 7 7 8 8 8 7 8 9 10 10 9 8 6 6 8 10 15 10 8 8 7 7 7 7 8 8
1 1 1 0 1 1 3 3 3 4 5 6 7 7 7 8 8 9 9 9 10 10 10 8 7 8 10 11 6 19 10 8 8 8 9 9 9 9
5 4 4 3 3 3 3 3 3 4 4 4 3 4 5 6 7 7 10 12 11 10 9 8 9 9 10 11 10 7 20 10 9 9 10 9 8 2
5 4 3 2 2 2 1 2 2 3 4 4 4 4 5 5 5 5 6 8 9 8 11 9 5 11 6 7 9 11 10 24 15 10 9 10 10 10
5 4 4 3 3 3 3 3 2 3 3 3 3 4 4 4 4 4 4 5 5 4 5 7 6 2 2 5 8 14 11 9 15 21 15 11 9 11
3 3 2 2 1 1 2 2 3 4 4 4 5 5 5 5 4 4 4 4 4 4 4 5 5 3 1 3 7 6 8 12 9 12 11 22 22 19
Wind_Direction
109 101 101 98 88 268 255 273 306 302 314 93 306 45 10 14 17 326 320 131 195 211 213 215 220 226 233 234 234 225 225 215 215 220 225 229 234 235
155 136 162 148 173 183 296 239 235 264 270 342 334 331 335 327 22 331 315 286 110 25 327 276 241 232 229 234 236 228 223 223 222 219 223 227 234 236
147 147 139 275 348 347 324 308 270 271 274 284 302 327 317 340 342 342 314 293 276 54 19 352 247 240 240 229 229 229 223 225 225 225 221 223 226 231
178 189 169 187 247 5 306 319 329 332 320 317 358 330 310 328 338 329 336 318 295 75 28 3 7 257 242 229 211 212 217 208 199 210 223 226 215 218
193 220 238 252 285 329 338 343 348 331 326 310 302 300 311 330 327 320 327 336 286 328 227 100 37 40 16 216 191 200 193 202 219 214 233 241 243 233
212 229 234 271 295 292 288 316 344 322 322 293 300 303 297 326 305 320 303 330 315 312 335 112 32 63 66 74 238 191 192 194 195 207 209 231 232 242
248 241 214 282 283 268 281 318 301 297 304 307 298 298 297 310 329 340 309 317 275 327 322 312 313 315 114 132 118 224 187 189 182 194 191 199 217 219
253 249 251 240 220 190 209 241 324 305 290 287 290 301 301 298 299 326 322 327 311 111 323 295 287 260 201 179 57 192 176 166 193 181 184 184 199 202
244 244 243 232 226 226 187 188 204 242 279 286 286 293 304 326 326 304 333 313 301 321 308 285 259 266 234 133 122 129 148 138 139 137 156 186 190 187
240 238 242 262 256 260 240 246 264 299 290 267 277 285 283 306 300 301 310 304 270 263 235 282 350 301 247 174 145 159 172 158 141 215 167 133 109 145
235 240 239 269 313 239 236 251 275 299 187 238 267 278 271 263 260 278 264 274 286 269 201 288 310 307 294 227 152 174 174 177 157 195 165 136 131 147
222 241 210 272 331 226 229 249 280 319 321 313 290 249 234 249 220 237 264 270 271 257 130 275 311 346 291 130 279 177 185 183 197 218 199 176 194 219
214 219 198 174 249 210 231 241 291 325 306 292 292 288 272 249 250 234 242 250 257 254 107 257 275 294 264 282 286 217 213 175 220 198 208 208 230 264
220 200 172 174 180 175 201 234 260 281 276 282 292 294 288 287 291 304 289 252 254 268 133 262 283 275 281 279 271 189 207 217 236 231 219 198 221 256
236 203 152 182 210 213 229 247 252 260 276 275 274 283 287 296 295 271 252 250 245 245 230 233 263 252 257 267 276 272 299 224 227 243 236 232 232 210
237 221 199 282 286 303 281 224 244 259 268 275 278 276 279 260 256 257 268 256 261 255 219 235 231 239 258 253 267 266 253 259 200 233 237 240 230 233
186 209 218 228 242 244 248 262 271 270 266 266 263 266 264 266 251 245 244 253 255 267 266 207 213 240 255 266 256 252 256 246 241 237 228 239 223 222
170 212 227 260 273 295 296 298 288 287 294 291 279 276 276 273 270 254 242 245 252 253 255 256 232 237 237 232 230 252 250 245 245 209 232 244 238 220
34 73 110 182 303 260 292 304 316 313 312 320 325 312 298 292 289 274 261 250 248 249 251 251 241 245 261 262 263 219 251 238 237 228 230 228 249 249
54 39 30 31 34 6 14 6 346 342 319 328 344 334 344 340 318 312 303 283 270 261 253 239 235 239 248 266 283 288 204 257 252 242 238 228 242 84
55 54 67 71 68 55 24 15 4 353 344 349 349 351 356 336 350 340 339 339 331 305 297 273 326 8 304 281 257 252 244 214 246 251 249 248 237 228
28 32 27 10 15 5 9 11 0 8 350 348 349 342 1 347 335 334 331 335 335 324 324 332 340 326 288 276 273 299 287 260 213 239 249 262 252 235
31 24 10 353 326 330 313 319 324 332 328 322 330 339 332 335 322 329 312 325 329 332 345 331 317 328 247 245 257 254 267 300 297 288 233 214 234 251